Time,TemperatureF,DewpointF,PressureIn,WindDirection,WindDirectionDegrees,WindSpeedMPH,WindSpeedGustMPH,Humidity,HourlyPrecipIn,Conditions,Clouds,dailyrainin,SoftwareType,DateUTC
2013-03-28 00:02:00,38.0,34.0,30.14,WNW,287,1.0,2.0,84,0.00,,,0.00,,2013-03-28 04:02:00,
2013-03-28 00:12:00,38.0,34.0,30.14,WNW,287,1.0,2.0,84,0.00,,,0.00,,2013-03-28 04:12:00,
2013-03-28 00:23:00,38.0,34.0,30.14,North,8,0.0,1.0,86,0.00,,,0.00,,2013-03-28 04:23:00,
2013-03-28 00:32:00,38.0,34.0,30.14,NNE,32,0.0,1.0,87,0.00,,,0.00,,2013-03-28 04:32:00,
2013-03-28 00:42:00,38.0,34.0,30.14,NNE,32,0.0,1.0,87,0.00,,,0.00,,2013-03-28 04:42:00,
2013-03-28 00:52:00,38.0,35.0,30.14,West,278,0.0,1.0,89,0.00,,,0.00,,2013-03-28 04:52:00,
2013-03-28 01:02:00,38.0,35.0,30.14,West,261,0.0,1.0,90,0.00,,,0.00,,2013-03-28 05:02:00,
2013-03-28 01:12:00,38.0,35.0,30.14,West,261,0.0,1.0,90,0.00,,,0.00,,2013-03-28 05:12:00,
2013-03-28 01:22:00,37.0,35.0,30.14,West,262,0.0,1.0,92,0.00,,,0.00,,2013-03-28 05:22:00,
2013-03-28 01:32:00,37.0,35.0,30.14,South,191,0.0,1.0,92,0.01,,,0.01,,2013-03-28 05:32:00,
2013-03-28 01:42:00,37.0,35.0,30.14,South,191,0.0,1.0,92,0.01,,,0.01,,2013-03-28 05:42:00,
2013-03-28 01:52:00,37.0,35.0,30.14,West,281,0.0,1.0,93,0.01,,,0.01,,2013-03-28 05:52:00,
2013-03-28 02:02:00,37.0,35.0,30.14,West,278,0.0,2.0,93,0.01,,,0.01,,2013-03-28 06:02:00,
2013-03-28 02:12:00,37.0,35.0,30.14,West,278,0.0,2.0,93,0.01,,,0.01,,2013-03-28 06:12:00,
2013-03-28 02:22:00,37.0,35.0,30.14,West,274,0.0,1.0,94,0.02,,,0.02,,2013-03-28 06:22:00,
2013-03-28 02:32:00,37.0,35.0,30.14,West,274,0.0,1.0,94,0.01,,,0.02,,2013-03-28 06:32:00,
2013-03-28 02:42:00,37.0,35.0,30.14,West,274,0.0,1.0,94,0.01,,,0.02,,2013-03-28 06:42:00,
2013-03-28 02:52:00,36.0,35.0,30.14,NNW,336,0.0,1.0,95,0.02,,,0.03,,2013-03-28 06:52:00,
2013-03-28 03:02:00,36.0,35.0,30.14,NNW,342,0.0,1.0,95,0.02,,,0.03,,2013-03-28 07:02:00,
2013-03-28 03:12:00,36.0,35.0,30.14,NNW,342,0.0,1.0,95,0.02,,,0.03,,2013-03-28 07:12:00,
2013-03-28 03:22:00,36.0,35.0,30.14,NNW,342,0.0,0.0,95,0.01,,,0.03,,2013-03-28 07:22:00,
2013-03-28 03:32:00,36.0,35.0,30.14,NNW,342,0.0,1.0,95,0.01,,,0.03,,2013-03-28 07:32:00,
2013-03-28 03:42:00,36.0,35.0,30.14,NNW,342,0.0,1.0,95,0.01,,,0.03,,2013-03-28 07:42:00,
2013-03-28 03:52:00,36.0,35.0,30.14,NNW,342,0.0,0.0,96,0.01,,,0.04,,2013-03-28 07:52:00,
2013-03-28 04:02:00,36.0,35.0,30.14,NNW,342,0.0,0.0,96,0.01,,,0.04,,2013-03-28 08:02:00,
2013-03-28 04:12:00,36.0,35.0,30.14,NNW,342,0.0,0.0,96,0.01,,,0.04,,2013-03-28 08:12:00,
2013-03-28 04:21:00,35.0,34.0,30.14,NNW,342,0.0,0.0,96,0.01,,,0.04,,2013-03-28 08:21:00,
2013-03-28 04:32:00,35.0,34.0,30.14,NNW,342,0.0,1.0,96,0.01,,,0.04,,2013-03-28 08:32:00,
2013-03-28 04:42:00,35.0,34.0,30.14,NNW,342,0.0,1.0,96,0.01,,,0.04,,2013-03-28 08:42:00,
2013-03-28 04:52:00,35.0,34.0,30.15,NNW,342,0.0,0.0,96,0.00,,,0.04,,2013-03-28 08:52:00,
2013-03-28 05:02:00,35.0,34.0,30.15,NNW,342,0.0,0.0,96,0.00,,,0.04,,2013-03-28 09:02:00,
2013-03-28 05:12:00,35.0,34.0,30.15,NNW,342,0.0,0.0,96,0.00,,,0.04,,2013-03-28 09:12:00,
2013-03-28 05:22:00,34.0,33.0,30.15,NNW,342,0.0,0.0,96,0.00,,,0.04,,2013-03-28 09:22:00,
2013-03-28 05:32:00,34.0,33.0,30.15,NNW,342,0.0,0.0,97,0.00,,,0.04,,2013-03-28 09:32:00,
2013-03-28 05:42:00,34.0,33.0,30.15,NNW,342,0.0,0.0,97,0.00,,,0.04,,2013-03-28 09:42:00,
2013-03-28 05:52:00,35.0,34.0,30.16,NNW,342,0.0,0.0,97,0.00,,,0.04,,2013-03-28 09:52:00,
2013-03-28 06:03:00,35.0,34.0,30.16,NNW,342,0.0,0.0,97,0.00,,,0.04,,2013-03-28 10:03:00,
2013-03-28 06:12:00,35.0,34.0,30.16,NNW,342,0.0,0.0,97,0.00,,,0.04,,2013-03-28 10:12:00,
2013-03-28 06:22:00,34.0,33.0,30.16,NNW,342,0.0,0.0,97,0.00,,,0.04,,2013-03-28 10:22:00,
2013-03-28 06:33:00,34.0,33.0,30.16,NNW,342,0.0,0.0,97,0.00,,,0.04,,2013-03-28 10:33:00,
2013-03-28 06:42:00,34.0,33.0,30.16,NNW,342,0.0,0.0,97,0.00,,,0.04,,2013-03-28 10:42:00,
2013-03-28 06:53:00,34.0,33.0,30.17,East,98,0.0,2.0,97,0.00,,,0.04,,2013-03-28 10:53:00,
2013-03-28 07:02:00,34.0,33.0,30.18,East,98,0.0,0.0,97,0.00,,,0.04,,2013-03-28 11:02:00,
2013-03-28 07:12:00,34.0,33.0,30.18,East,98,0.0,0.0,97,0.00,,,0.04,,2013-03-28 11:12:00,
2013-03-28 07:23:00,34.0,33.0,30.18,East,98,0.0,0.0,97,0.00,,,0.04,,2013-03-28 11:23:00,
2013-03-28 07:32:00,34.0,33.0,30.19,East,98,0.0,0.0,97,0.00,,,0.04,,2013-03-28 11:32:00,
2013-03-28 07:42:00,34.0,33.0,30.19,East,98,0.0,0.0,97,0.00,,,0.04,,2013-03-28 11:42:00,
2013-03-28 07:52:00,35.0,34.0,30.19,East,98,0.0,0.0,97,0.00,,,0.04,,2013-03-28 11:52:00,
2013-03-28 08:02:00,35.0,34.0,30.19,North,349,0.0,1.0,97,0.00,,,0.04,,2013-03-28 12:02:00,
2013-03-28 08:12:00,35.0,34.0,30.19,North,349,0.0,1.0,97,0.00,,,0.04,,2013-03-28 12:12:00,
2013-03-28 08:22:00,37.0,36.0,30.20,WNW,283,0.0,1.0,97,0.00,,,0.04,,2013-03-28 12:22:00,
2013-03-28 08:32:00,37.0,36.0,30.20,WNW,283,0.0,0.0,95,0.00,,,0.04,,2013-03-28 12:32:00,
2013-03-28 08:42:00,37.0,36.0,30.20,WNW,283,0.0,0.0,95,0.00,,,0.04,,2013-03-28 12:42:00,
2013-03-28 08:52:00,39.0,36.0,30.21,West,277,0.0,1.0,90,0.00,,,0.04,,2013-03-28 12:52:00,
2013-03-28 09:02:00,40.0,37.0,30.21,North,8,0.0,3.0,88,0.00,,,0.04,,2013-03-28 13:02:00,
2013-03-28 09:12:00,40.0,37.0,30.21,North,8,0.0,3.0,88,0.00,,,0.04,,2013-03-28 13:12:00,
2013-03-28 09:22:00,42.0,37.0,30.21,West,264,0.0,2.0,82,0.00,,,0.04,,2013-03-28 13:22:00,
2013-03-28 09:32:00,42.0,36.0,30.21,ENE,66,0.0,2.0,80,0.00,,,0.04,,2013-03-28 13:32:00,
2013-03-28 09:42:00,42.0,36.0,30.21,ENE,66,0.0,2.0,80,0.00,,,0.04,,2013-03-28 13:42:00,
2013-03-28 09:52:00,43.0,36.0,30.21,WNW,288,0.0,3.0,76,0.00,,,0.04,,2013-03-28 13:52:00,
2013-03-28 10:02:00,43.0,36.0,30.21,North,355,0.0,1.0,75,0.00,,,0.04,,2013-03-28 14:02:00,
2013-03-28 10:12:00,43.0,36.0,30.21,North,355,0.0,1.0,75,0.00,,,0.04,,2013-03-28 14:12:00,
2013-03-28 10:22:00,44.0,36.0,30.21,West,273,1.0,2.0,72,0.00,,,0.04,,2013-03-28 14:22:00,
2013-03-28 10:32:00,44.0,34.0,30.22,WSW,254,0.0,3.0,68,0.00,,,0.04,,2013-03-28 14:32:00,
2013-03-28 10:42:00,44.0,34.0,30.22,WSW,254,0.0,3.0,68,0.00,,,0.04,,2013-03-28 14:42:00,
2013-03-28 10:52:00,45.0,33.0,30.22,NE,39,1.0,5.0,63,0.00,,,0.04,,2013-03-28 14:52:00,
2013-03-28 11:02:00,46.0,34.0,30.22,East,100,1.0,3.0,62,0.00,,,0.04,,2013-03-28 15:02:00,
2013-03-28 11:12:00,46.0,34.0,30.22,East,100,1.0,3.0,62,0.00,,,0.04,,2013-03-28 15:12:00,
2013-03-28 11:22:00,46.0,33.0,30.22,West,262,1.0,5.0,60,0.00,,,0.04,,2013-03-28 15:22:00,
2013-03-28 11:33:00,46.0,34.0,30.22,WSW,246,1.0,3.0,62,0.00,,,0.04,,2013-03-28 15:33:00,
2013-03-28 11:43:00,46.0,34.0,30.22,WSW,246,1.0,3.0,62,0.00,,,0.04,,2013-03-28 15:43:00,
2013-03-28 11:53:00,47.0,33.0,30.22,ENE,72,1.0,3.0,59,0.00,,,0.04,,2013-03-28 15:53:00,
2013-03-28 12:02:00,46.0,32.0,30.22,ENE,77,0.0,1.0,58,0.00,,,0.04,,2013-03-28 16:02:00,
2013-03-28 12:12:00,46.0,32.0,30.22,ENE,77,0.0,1.0,58,0.00,,,0.04,,2013-03-28 16:12:00,
2013-03-28 12:23:00,46.0,33.0,30.22,ENE,72,0.0,2.0,61,0.00,,,0.04,,2013-03-28 16:23:00,
2013-03-28 12:32:00,46.0,33.0,30.22,WSW,248,1.0,3.0,60,0.00,,,0.04,,2013-03-28 16:32:00,
2013-03-28 12:42:00,46.0,33.0,30.22,WSW,248,1.0,3.0,60,0.00,,,0.04,,2013-03-28 16:42:00,
2013-03-28 12:52:00,47.0,33.0,30.22,West,259,1.0,2.0,58,0.00,,,0.04,,2013-03-28 16:52:00,
2013-03-28 13:02:00,47.0,33.0,30.21,North,359,0.0,3.0,59,0.00,,,0.04,,2013-03-28 17:02:00,
2013-03-28 13:12:00,47.0,33.0,30.21,North,359,0.0,3.0,59,0.00,,,0.04,,2013-03-28 17:12:00,
2013-03-28 13:22:00,47.0,32.0,30.21,WSW,250,0.0,2.0,56,0.00,,,0.04,,2013-03-28 17:22:00,
2013-03-28 13:32:00,47.0,32.0,30.21,West,260,1.0,3.0,56,0.00,,,0.04,,2013-03-28 17:32:00,
2013-03-28 13:42:00,47.0,32.0,30.21,West,260,1.0,3.0,56,0.00,,,0.04,,2013-03-28 17:42:00,
2013-03-28 13:52:00,47.0,33.0,30.21,NNW,344,0.0,3.0,58,0.00,,,0.04,,2013-03-28 17:52:00,
2013-03-28 14:02:00,47.0,33.0,30.22,NE,40,1.0,2.0,57,0.00,,,0.04,,2013-03-28 18:02:00,
2013-03-28 14:12:00,47.0,33.0,30.22,NE,40,1.0,2.0,57,0.00,,,0.04,,2013-03-28 18:12:00,
2013-03-28 14:22:00,46.0,32.0,30.21,NE,51,0.0,3.0,58,0.00,,,0.04,,2013-03-28 18:22:00,
2013-03-28 14:32:00,46.0,33.0,30.22,ENE,77,1.0,3.0,60,0.00,,,0.04,,2013-03-28 18:32:00,
2013-03-28 14:42:00,46.0,33.0,30.22,ENE,77,1.0,3.0,60,0.00,,,0.04,,2013-03-28 18:42:00,
2013-03-28 14:52:00,46.0,34.0,30.22,East,88,1.0,2.0,62,0.00,,,0.04,,2013-03-28 18:52:00,
2013-03-28 15:02:00,45.0,35.0,30.22,East,92,1.0,3.0,67,0.00,,,0.04,,2013-03-28 19:02:00,
2013-03-28 15:12:00,45.0,35.0,30.22,East,92,1.0,3.0,67,0.00,,,0.04,,2013-03-28 19:12:00,
2013-03-28 15:22:00,46.0,35.0,30.21,WNW,283,2.0,6.0,66,0.00,,,0.04,,2013-03-28 19:22:00,
2013-03-28 15:33:00,46.0,36.0,30.21,East,86,0.0,3.0,67,0.00,,,0.04,,2013-03-28 19:33:00,
2013-03-28 15:42:00,46.0,36.0,30.21,East,86,0.0,3.0,67,0.00,,,0.04,,2013-03-28 19:42:00,
2013-03-28 15:52:00,45.0,35.0,30.21,East,84,0.0,2.0,68,0.00,,,0.04,,2013-03-28 19:52:00,
2013-03-28 16:03:00,45.0,36.0,30.22,East,82,0.0,1.0,70,0.00,,,0.04,,2013-03-28 20:03:00,
2013-03-28 16:12:00,45.0,36.0,30.22,East,82,0.0,1.0,70,0.00,,,0.04,,2013-03-28 20:12:00,
2013-03-28 16:22:00,44.0,35.0,30.22,West,259,1.0,2.0,71,0.00,,,0.04,,2013-03-28 20:22:00,
2013-03-28 16:32:00,44.0,34.0,30.22,WSW,246,1.0,2.0,69,0.00,,,0.04,,2013-03-28 20:32:00,
2013-03-28 16:42:00,44.0,34.0,30.22,WSW,246,1.0,2.0,69,0.00,,,0.04,,2013-03-28 20:42:00,
2013-03-28 16:53:00,45.0,35.0,30.22,WSW,248,0.0,1.0,69,0.00,,,0.04,,2013-03-28 20:53:00,
2013-03-28 17:02:00,45.0,35.0,30.22,WSW,254,0.0,1.0,69,0.00,,,0.04,,2013-03-28 21:02:00,
2013-03-28 17:12:00,45.0,35.0,30.22,WSW,254,0.0,1.0,69,0.00,,,0.04,,2013-03-28 21:12:00,
2013-03-28 17:22:00,46.0,36.0,30.22,East,100,0.0,1.0,68,0.00,,,0.04,,2013-03-28 21:22:00,
2013-03-28 17:33:00,46.0,36.0,30.22,East,92,0.0,1.0,67,0.00,,,0.04,,2013-03-28 21:33:00,
2013-03-28 17:43:00,46.0,36.0,30.22,East,92,0.0,1.0,67,0.00,,,0.04,,2013-03-28 21:43:00,
2013-03-28 17:53:00,46.0,36.0,30.22,WSW,238,0.0,1.0,67,0.00,,,0.04,,2013-03-28 21:53:00,
2013-03-28 18:03:00,46.0,36.0,30.22,WSW,248,0.0,1.0,67,0.00,,,0.04,,2013-03-28 22:03:00,
2013-03-28 18:13:00,46.0,36.0,30.22,WSW,248,0.0,1.0,67,0.00,,,0.04,,2013-03-28 22:13:00,
2013-03-28 18:23:00,45.0,35.0,30.22,SSW,210,0.0,2.0,67,0.00,,,0.04,,2013-03-28 22:23:00,
2013-03-28 18:32:00,45.0,34.0,30.23,SSW,207,0.0,0.0,66,0.00,,,0.04,,2013-03-28 22:32:00,
2013-03-28 18:42:00,45.0,34.0,30.23,SSW,207,0.0,0.0,66,0.00,,,0.04,,2013-03-28 22:42:00,
2013-03-28 18:53:00,45.0,35.0,30.23,SSW,207,0.0,0.0,68,0.00,,,0.04,,2013-03-28 22:53:00,
2013-03-28 19:03:00,44.0,34.0,30.24,SSW,207,0.0,0.0,69,0.00,,,0.04,,2013-03-28 23:03:00,
2013-03-28 19:12:00,44.0,34.0,30.24,SSW,207,0.0,0.0,69,0.00,,,0.04,,2013-03-28 23:12:00,
2013-03-28 19:22:00,43.0,35.0,30.25,SSW,207,0.0,0.0,73,0.00,,,0.04,,2013-03-28 23:22:00,
2013-03-28 19:32:00,43.0,34.0,30.25,SSW,207,0.0,0.0,71,0.00,,,0.04,,2013-03-28 23:32:00,
2013-03-28 19:42:00,43.0,34.0,30.25,SSW,207,0.0,0.0,71,0.00,,,0.04,,2013-03-28 23:42:00,
2013-03-28 19:53:00,42.0,34.0,30.25,SSW,207,0.0,0.0,73,0.00,,,0.04,,2013-03-28 23:53:00,
2013-03-28 20:02:00,42.0,34.0,30.25,SSW,207,0.0,0.0,74,0.00,,,0.04,,2013-03-29 00:02:00,
2013-03-28 20:12:00,42.0,34.0,30.25,SSW,207,0.0,0.0,74,0.00,,,0.04,,2013-03-29 00:12:00,
2013-03-28 20:22:00,41.0,34.0,30.26,SSW,207,0.0,0.0,75,0.00,,,0.04,,2013-03-29 00:22:00,
2013-03-28 20:32:00,40.0,32.0,30.26,SSW,207,0.0,0.0,73,0.00,,,0.04,,2013-03-29 00:32:00,
2013-03-28 20:42:00,40.0,32.0,30.26,SSW,207,0.0,0.0,73,0.00,,,0.04,,2013-03-29 00:42:00,
2013-03-28 20:52:00,39.0,31.0,30.26,SSW,207,0.0,0.0,74,0.00,,,0.04,,2013-03-29 00:52:00,
2013-03-28 21:02:00,39.0,31.0,30.27,SSW,207,0.0,0.0,74,0.00,,,0.04,,2013-03-29 01:02:00,
2013-03-28 21:12:00,39.0,31.0,30.27,SSW,207,0.0,0.0,74,0.00,,,0.04,,2013-03-29 01:12:00,
2013-03-28 21:22:00,39.0,32.0,30.27,SSW,207,0.0,0.0,75,0.00,,,0.04,,2013-03-29 01:22:00,
2013-03-28 21:33:00,39.0,32.0,30.27,SSW,207,0.0,0.0,75,0.00,,,0.04,,2013-03-29 01:33:00,
2013-03-28 21:42:00,39.0,32.0,30.27,SSW,207,0.0,0.0,75,0.00,,,0.04,,2013-03-29 01:42:00,
2013-03-28 21:52:00,39.0,31.0,30.27,SSW,207,0.0,0.0,74,0.00,,,0.04,,2013-03-29 01:52:00,
2013-03-28 22:02:00,39.0,31.0,30.27,SSW,207,0.0,0.0,74,0.00,,,0.04,,2013-03-29 02:02:00,
2013-03-28 22:12:00,39.0,31.0,30.27,SSW,207,0.0,0.0,74,0.00,,,0.04,,2013-03-29 02:12:00,
2013-03-28 22:22:00,40.0,32.0,30.27,ESE,105,0.0,1.0,74,0.00,,,0.04,,2013-03-29 02:22:00,
2013-03-28 22:32:00,40.0,32.0,30.27,ESE,105,0.0,0.0,73,0.00,,,0.04,,2013-03-29 02:32:00,
2013-03-28 22:42:00,40.0,32.0,30.27,ESE,105,0.0,0.0,73,0.00,,,0.04,,2013-03-29 02:42:00,
2013-03-28 22:53:00,40.0,32.0,30.28,ESE,105,0.0,0.0,74,0.00,,,0.04,,2013-03-29 02:53:00,
2013-03-28 23:02:00,39.0,32.0,30.27,ESE,105,0.0,0.0,76,0.00,,,0.04,,2013-03-29 03:02:00,
2013-03-28 23:12:00,39.0,32.0,30.27,ESE,105,0.0,0.0,76,0.00,,,0.04,,2013-03-29 03:12:00,
2013-03-28 23:22:00,39.0,32.0,30.27,ESE,106,0.0,0.0,76,0.00,,,0.04,,2013-03-29 03:22:00,
2013-03-28 23:32:00,39.0,32.0,30.27,ESE,106,0.0,0.0,76,0.00,,,0.04,,2013-03-29 03:32:00,
2013-03-28 23:42:00,39.0,32.0,30.27,ESE,106,0.0,0.0,76,0.00,,,0.04,,2013-03-29 03:42:00,
2013-03-28 23:53:00,40.0,33.0,30.27,ESE,106,0.0,0.0,77,0.00,,,0.04,,2013-03-29 03:53:00,